This demonstration page uses our WeatherBlox Daily Observations layout. Learn more.

Left ArrowRight Arrow

39.01783, -85.05884

Hourly Observations for August 22, 2016

Temp ( °F °C ) Dew Point ( °F °C ) Humidity (%) Winds ( mph kmh ) Pressure ( in mb ) Visibility ( mi km ) Precip ( " mm )
12:52 am 00:52 Clear 66 18.9 59 15 78 78 NW 5 7 30.07 1018 10 16 N/A
1:52 am 01:52 Clear 60 15.6 59 15 96 96 N N/A 30.08 1019 10 16 N/A
2:52 am 02:52 Clear 61 16.1 60 15.6 97 97 N N/A 30.08 1019 10 16 N/A
3:52 am 03:52 Clear 60 15.6 59 15 96 96 N N/A 30.09 1019 10 16 N/A
4:52 am 04:52 Clear 57 13.9 57 13.9 100 100 N N/A 30.10 1019 9 14 N/A
5:52 am 05:52 Clear 58 14.4 57 13.9 97 97 N N/A 30.11 1020 9 14 N/A
6:52 am 06:52 Clear 57 13.9 57 13.9 100 100 N N/A 30.13 1020 8 13 N/A
7:52 am 07:52 Mostly Sunny 59 15 59 15 100 100 N N/A 30.16 1021 10 16 N/A
8:52 am 08:52 Mostly Sunny 66 18.9 60 15.6 81 81 N 3 6 30.18 1022 10 16 N/A
9:52 am 09:52 Sunny 70 21.1 60 15.6 71 71 NE 3 6 30.19 1022 10 16 N/A
10:52 am 10:52 Mostly Sunny 73 22.8 58 14.4 59 59 N N/A 30.21 1023 10 16 N/A
11:52 am 11:52 Mostly Cloudy 75 23.9 56 13.3 52 52 N N/A 30.21 1023 10 16 N/A
12:52 pm 12:52 Partly Cloudy 76 24.4 55 12.8 48 48 VRB 3 6 30.21 1023 10 16 N/A
1:52 pm 13:52 Mostly Cloudy 78 25.6 55 12.8 45 45 NNE 6 9 30.20 1023 10 16 N/A
2:52 pm 14:52 Partly Cloudy 77 25 53 11.7 43 43 N N/A 30.20 1023 10 16 N/A
3:52 pm 15:52 Partly Cloudy 76 24.4 53 11.7 45 45 N N/A 30.19 1022 10 16 N/A
4:52 pm 16:52 Mostly Sunny 79 26.1 56 13.3 45 45 W 7 11 30.18 1022 10 16 N/A
5:52 pm 17:52 Partly Cloudy 79 26.1 55 12.8 44 44 W 7 11 30.17 1022 10 16 N/A
6:52 pm 18:52 Partly Cloudy 77 25 56 13.3 48 48 W 6 9 30.17 1022 10 16 N/A
7:52 pm 19:52 Partly Cloudy 75 23.9 57 13.9 54 54 W 3 6 30.17 1022 10 16 N/A
8:52 pm 20:52 Mostly Clear 71 21.7 58 14.4 63 63 N N/A 30.18 1022 10 16 N/A
9:52 pm 21:52 Mostly Clear 69 20.6 57 13.9 66 66 N N/A 30.20 1023 10 16 N/A
10:52 pm 22:52 Clear 68 20 58 14.4 70 70 N N/A 30.21 1023 10 16 N/A
11:52 pm 23:52 Clear 67 19.4 58 14.4 73 73 N N/A 30.21 1023 10 16 N/A

Powered by AerisWeather